#timestamp,LO_Frequency,Hit 
1504231215.7,286047002.8,N
1504231235.6,286047001.7,N
1504231255.4,286047002.0,N
1504231275.2,286047001.1,N
1504231295.0,286047000.9,N
1504231296.0,286047000.9,N
1504231315.8,286047000.9,N
1504231335.6,286046999.9,N
1504231355.4,286046998.1,N
1504231375.3,286046998.5,N
1504231395.1,286047002.7,N
1504231415.8,286047002.6,N
1504231435.7,286047002.3,N
1504231455.5,286047000.4,N
1504231475.3,286047001.2,N
1504231495.2,286047000.8,N
1504231515.9,286047000.4,N
1504231535.7,286047000.1,N
1504231555.6,286047001.8,N
1504231575.4,286047001.8,N
1504231595.2,286047004.3,P
1504231615.1,286047003.9,N
1504231616.0,286047003.9,N
1504231635.8,286046998.2,N
1504231655.6,286046998.6,N
1504231675.5,286046998.1,N
1504231695.3,286047000.7,N
1504231715.1,286047003.9,N
1504231735.9,286047006.2,N
1504231755.7,286047006.7,N
1504231775.5,286047005.1,N
1504231795.3,286047002.7,N
1504231815.2,286047001.8,N
1504231835.0,286047004.1,N
1504231835.9,286047004.1,N
1504231855.7,286047003.5,N
1504231875.6,286047004.0,N
1504231895.4,286047003.3,N
1504231915.2,286047005.3,N
1504231935.1,286047004.8,N
1504231936.0,286047004.8,N
1504231955.8,286047005.3,N
1504231975.6,286047003.3,N
1504231995.5,286047005.6,N
1504232015.3,286047007.5,P
1504232035.1,286047003.5,N
1504232055.9,286047001.7,N
1504232075.7,286047005.9,N
1504232095.5,286047005.3,N
1504232115.4,286047005.8,P
1504232135.2,286047001.0,N
1504232155.0,286047000.1,N
1504232155.9,286047000.1,N
1504232175.8,286047004.4,N
1504232195.6,286047007.2,P
1504232215.4,286047000.6,N
1504232235.3,286047008.2,N
1504232255.1,286047017.4,P
1504232275.8,286047020.4,P
1504232295.7,286047011.8,N
1504232315.5,286047013.8,N
1504232335.3,286047011.5,N
1504232355.2,286047004.7,N
1504232375.9,286047010.8,N
1504232395.7,286047027.4,P
1504232415.6,286047007.9,N
1504232435.4,286047004.0,N
1504232455.2,286046995.0,N
1504232475.1,286046997.1,N
1504232476.0,286046997.1,N
1504232495.8,286047018.8,N
1504232515.6,286047018.3,N
1504232535.5,286047015.3,N
1504232555.3,286047024.4,N
1504232575.1,286047027.3,N
1504232595.9,286047030.9,N
1504232615.7,286047027.3,N
1504232635.5,286047021.1,N
1504232655.3,286047031.6,N
1504232675.2,286047033.1,N
1504232695.0,286047028.8,N
1504232695.9,286047028.8,N
1504232715.7,286047029.5,N
1504232735.6,286047033.2,N
1504232755.4,286047030.6,N
1504232775.2,286047025.0,N
1504232795.1,286047020.0,N
1504232796.0,286047020.0,N
1504232815.8,286047016.9,N
1504232835.6,286047015.4,N
1504232855.5,286047014.9,N
1504232875.3,286047012.7,N
1504232895.1,286047016.8,N
1504232915.9,286047014.6,N
1504232935.7,286047014.2,N
1504232955.5,286047017.2,N
1504232975.4,286047011.3,N
1504232995.2,286047011.5,N
1504233015.0,286047011.8,N
1504233015.9,286047011.8,N
1504233035.7,286047009.5,N
1504233055.6,286047013.3,N
1504233075.4,286047016.2,N
1504233095.2,286047018.8,N
1504233115.1,286047017.5,N
1504233116.0,286047017.5,N
1504233135.8,286047016.3,N
1504233155.6,286047013.1,N
1504233175.5,286047012.2,N
1504233195.3,286047015.2,N
1504233215.1,286047015.8,N
1504233235.9,286047018.3,P
1504233255.7,286047002.6,P
1504233275.5,286046994.9,N
1504233295.4,286047004.3,N
1504233315.2,286046999.4,N
1504233335.0,286046996.7,N
1504233335.9,286046996.7,N
1504233355.8,286047004.4,N
1504233375.6,286047003.4,N
1504233395.4,286047002.5,N
1504233415.3,286047000.3,N
1504233435.1,286046999.7,N
1504233436.0,286046999.7,N
1504233455.8,286046999.7,N
1504233475.7,286047003.0,N
1504233495.5,286047002.4,N
1504233515.3,286046997.9,N
1504233535.2,286046993.8,N
1504233555.9,286046994.0,N
1504233575.7,286046993.6,N
1504233595.5,286046994.4,N
1504233615.4,286046993.8,N
1504233635.2,286046994.8,N
1504233655.0,286046994.6,N
1504233655.9,286046994.6,N
1504233675.8,286046993.0,N
1504233695.6,286046990.9,N
1504233715.4,286047003.2,N
1504233735.3,286047002.7,N
1504233755.1,286046997.0,N
1504233756.0,286046997.0,N
1504233775.8,286046996.2,N
1504233795.7,286046993.5,N
1504233815.5,286046990.4,N
1504233835.3,286046990.3,N
1504233855.2,286046992.6,N
1504233875.9,286046994.3,N
1504233895.7,286046992.3,N
1504233915.5,286046996.1,N
1504233935.4,286046994.5,N
1504233955.2,286046988.6,P
1504233975.1,286046992.8,N
1504233976.0,286046992.8,N
1504233995.8,286046993.7,N
1504234015.6,286047000.9,N
1504234035.4,286047002.3,N
1504234055.3,286046997.0,N
1504234075.1,286046997.9,N
1504234095.8,286046997.4,N
1504234115.7,286046999.2,N
1504234135.5,286046993.3,N
1504234155.3,286046992.9,N
1504234175.2,286046991.3,N
1504234195.9,286046993.2,N
1504234215.7,286046993.3,N
1504234235.6,286046999.0,N
1504234255.4,286046998.9,N
1504234275.2,286046997.3,N
1504234295.0,286046994.2,N
1504234296.0,286046994.2,N
1504234315.8,286046994.8,N
1504234335.6,286046990.4,N
1504234355.5,286046987.0,P
1504234375.3,286046992.9,N
1504234395.1,286046991.7,N
1504234415.8,286046995.9,N
1504234435.7,286046995.1,N
1504234455.5,286046995.2,N
1504234475.3,286046997.1,N
1504234495.2,286046998.4,N
1504234515.9,286046999.2,N
1504234535.7,286046994.9,N
1504234555.6,286046995.9,N
1504234575.4,286046991.9,N
1504234595.2,286046990.1,P
1504234615.1,286047001.1,N
1504234616.0,286047001.1,N
1504234635.8,286047002.7,N
1504234655.6,286047000.7,N
1504234675.5,286047004.0,N
1504234695.3,286047001.8,N
1504234715.1,286047004.3,N
1504234735.9,286047007.1,N
1504234755.7,286047004.5,N
1504234775.5,286047005.5,N
1504234795.3,286047003.0,N
